Preview of NWS' New Version of Forecast
This preview is not operational and should not be used for support decisions.

Regional Weather Roundup (RWR)

Issued by National Weather Service (NWS)

                            
000
ASUS43 KDMX 181606
RWRIA 

WEATHER ROUNDUP FOR IOWA
NATIONAL WEATHER SERVICE DES MOINES IA
1100 AM CDT WED SEP 18 2019

NOTE: "FAIR" INDICATES FEW OR NO CLOUDS BELOW 12,000 FEET WITH NO
SIGNIFICANT WEATHER AND/OR OBSTRUCTIONS TO VISIBILITY.

* - THESE STATIONS ARE NOT NWS STATIONS...THUS NOT UNDER NWS
QUALITY CONTROL.  THEY ALSO DO NOT REPORT WEATHER SUCH 
AS PRECIPITATION OR FOG.  

IAZ001>003-012>014-020>022-031>034-043>046-181700-
   NORTHWEST IOWA
  
CITY           SKY/WX    TMP DP  RH WIND       PRES   REMARKS
CARROLL *      DRIZZLE   73  72  94 SE8       29.96F                  
CHEROKEE *     PTSUNNY   77  71  81 SW8       29.92R                  
DENISON *      MOSUNNY   75  73  94 S13       29.96S                  
LE MARS *      SUNNY     75  63  64 NW8       29.92R                  
SHELDON *      SUNNY     75  66  73 W7G14     29.90R                  
SIOUX CITY     SUNNY     77  65  66 NW14      29.92R                  
SPENCER        MOSUNNY   78  69  73 SW15G24   29.91R HX  80           
STORM LAKE *   SUNNY     77  72  83 SW12G18   29.90S                  
$$
 
IAZ055>058-069>071-079>083-090>094-181700-
   SOUTHWEST IOWA
  
CITY           SKY/WX    TMP DP  RH WIND       PRES   REMARKS
ATLANTIC *     LGT RAIN  73  73 100 SW8G15    29.96F                  
AUDUBON *        N/A     73  70  88 S7        29.99R                  
CLARINDA *     PTSUNNY   82  73  74 S10       29.99R HX  88           
COUNCIL BLFS * PTSUNNY   77  72  83 S12       29.93S                  
CRESTON *      SUNNY     82  70  65 S13       29.99R HX  86           
HARLAN  *      CLOUDY    73  72  94 S6        29.96S                  
RED OAK *      CLOUDY    82  72  69 S9        29.97R HAZE    HX  87   
SHENANDOAH *   MOSUNNY   84  70  61 SW10      29.96R HX  88           
$$
 
IAZ047>049-059>061-072>074-084-181700-
   CENTRAL IOWA
  
CITY           SKY/WX    TMP DP  RH WIND       PRES   REMARKS
AMES           MOSUNNY   83  72  69 SE10      30.00R HX  88           
ANKENY *       SUNNY     82  72  69 VRB6      30.00R HX  87           
BOONE *        PTSUNNY   82  73  74 SW6G13    30.00R HX  88           
CHARITON *     SUNNY     82  73  74 S10       30.01R HX  88           
DES MOINES     MOSUNNY   84  71  65 S12       29.98R HX  89           
GRINNELL*      SUNNY     79  69  71 S8        30.04S HX  82           
KNOXVILLE *    SUNNY     82  73  74 S9        30.00S HX  88           
MARSHALLTOWN   SUNNY     79  71  76 SE10      30.01S HX  82           
NEWTON *       SUNNY     81  72  74 SE9       30.01R HX  84           
PELLA *          N/A     83  68  59 SE6       30.02S HX  86           
PERRY *        LGT RAIN  77  70  80 SE7       29.98S                  
$$
 
IAZ004>006-015-016-023>025-035-036-181700-
   NORTH CENTRAL IOWA
  
CITY           SKY/WX    TMP DP  RH WIND       PRES   REMARKS
ALGONA *       SUNNY     72  72 100 S16G23    29.92S                  
CLARION *        N/A     72  72 100 S12G17    29.99F FOG              
ESTHERVILLE    PTSUNNY   74  69  85 S15G25    29.90R                  
FORT DODGE *   LGT RAIN  71  70  96 S6        29.97F                  
MASON CITY     LGT RAIN  69  66  90 SE13G21   30.01S                  
FOREST CITY *  PTSUNNY   68  68 100 SE14G21   29.98R                  
IOWA FALLS *     N/A     79  66  65 CALM      30.04R HX  81           
$$

IAZ007>011-017>019-026>030-037>042-050>054-066-181700-
   NORTHEAST IOWA
  
CITY           SKY/WX    TMP DP  RH WIND       PRES   REMARKS
CEDAR RAPIDS   FAIR      76  68  76 S12       30.05R                  
CHARLES CITY * CLOUDY    70  66  88 N7        30.06F                  
CLINTON *      FAIR      75  67  76 SE9       30.11R                  
DECORAH *      FAIR      75  70  83 VRB6      30.08R                  
DUBUQUE        FAIR      74  67  78 S12       30.10R                  
MONTICELLO *   FAIR      77  70  78 SE8       30.08R                  
OELWEIN *      SUNNY     75  72  88 S9        30.07S                  
WATERLOO       FAIR      80  68  66 SE7       30.03R HX  83           
$$
 
IAZ064-065-067-068-078-181700-
   EAST CENTRAL IOWA
  
CITY           SKY/WX    TMP DP  RH WIND       PRES   REMARKS
DAVENPORT      FAIR      78  66  66 SE8       30.10R HX  80           
IOWA CITY      FAIR      78  69  73 SE9       30.07R HX  80           
MUSCATINE *    FAIR      79  68  69 SE9       30.07R HX  81           
QUAD CITIES    FAIR      79  66  64 SE8       30.08R HX  81           
$$
 
IAZ062-063-075>077-085>089-095>099-181700-
   SOUTHEAST IOWA
  
CITY           SKY/WX    TMP DP  RH WIND       PRES   REMARKS
BURLINGTON     SUNNY     78  67  68 SE5       30.07R HX  80           
FAIRFIELD *    SUNNY     81  72  74 SE12      30.04S HX  84           
FORT MADISON * SUNNY     79  72  78 SE6       30.07S HX  82           
KEOKUK *       SUNNY     81  70  69 SE8       30.06R HX  84           
OSKALOOSA *    FAIR      81  68  65 S6        30.03S HX  83           
CENTERVILLE *  FAIR      82  73  74 SE7       30.04S HX  88           
OTTUMWA        SUNNY     81  70  69 SE12      30.03R HX  84           
WASHINGTON *     N/A    N/A N/A N/A MISG        N/A                   
$$

ABBREVIATIONS USED IN REMARKS
   TC - TEMPERATURES IN CELSIUS
  WCI - WIND CHILL INDEX
   HX - HEAT INDEX
  VSB - VISIBILITY  
$$